Regional Weather Roundup
Issued by NWS Jackson, KY

Home | Current Version | Previous Version | Graphics & Text | Print | Product List | Glossary On
Versions: 1 2 3 4 5 6 7 8 9 10 11 12 13 14 15 16 17 18 19 20 21 22 23 24 25 26 27 28 29 30 31 32 33 34 35 36 37 38 39 40 41 42 43 44 45 46 47 48 49 50
527
ASUS43 KJKL 260610
RWRJKL

EAST KENTUCKY HOURLY WEATHER ROUNDUP
NATIONAL WEATHER SERVICE JACKSON KY
200 AM EDT THU MAY 26 2016

NOTE: "FAIR" INDICATES FEW OR NO CLOUDS BELOW 12,000 FEET WITH
NO SIGNIFICANT WEATHER AND/OR OBSTRUCTIONS TO VISIBILITY.

* THESE REPORTS ARE NOT UNDER NWS QUALITY CONTROL AND MAY NOT
  REPORT WEATHER SUCH AS PRECIPITATION AND FOG.

KYZ079-080-083-085-087-088-110-112-115-119-120-260700
...EASTERN KENTUCKY...

CITY           SKY/WX    TMP DP  RH WIND       PRES   REMARKS
JACKSON        CLOUDY    71  59  65 CALM      30.11F
6HR MIN TEMP:  70; 6HR MAX TEMP:  73;

LONDON         CLOUDY    70  60  70 CALM      30.11R
6HR MIN TEMP:  68; 6HR MAX TEMP:  75;

SOMERSET*      CLOUDY    64  63  94 CALM      30.11S
MONTICELLO*    CLOUDY    63  62  97 CALM      30.12S FOG
6HR MIN TEMP:  63; 6HR MAX TEMP:  75; 6HR PCP:  0.04;

WILLIAMSBURG*  CLOUDY    63  57  82 CALM      30.11S
MIDDLESBORO*   CLOUDY    64  62  92 CALM      30.13S
6HR MIN TEMP:  64; 6HR MAX TEMP:  77;

HARLAN APT*      N/A     66  57  72 CALM      30.14S
HAZARD APT*    CLOUDY    68  61  77 CALM      30.11F
BLACK MTN*       N/A     63  57  82 SW7         N/A
PIKE CO APT*   CLOUDY    72  57  59 SE6       30.13F
BIG SANDY APT* PTCLDY    71  59  66 CALM      30.11F
6HR MIN TEMP:  68; 6HR MAX TEMP:  78;

MOREHEAD APT*  CLOUDY    68  63  83 S5        30.11F
ASHLAND*       CLOUDY    66  63  88 CALM      30.07S
$$

KYZ035-036-041-042-044-050-067-078-099-260700
...CENTRAL KENTUCKY...

CITY           SKY/WX    TMP DP  RH WIND       PRES   REMARKS
MT STERLING*   CLOUDY    64  63  94 CALM      30.10S
FLEMING/MASON* CLOUDY   N/A N/A N/A S3        30.09F
DANVILLE*      PTCLDY    63  61  94 CALM      30.12R
RICHMOND*      PTCLDY    68  61  77 W6        30.10R
LEXINGTON      CLOUDY    67  61  81 SW3       30.10R
6HR MIN TEMP:  64; 6HR MAX TEMP:  76;

FRANKFORT      CLOUDY    67  61  81 SW5       30.08R
6HR MIN TEMP:  65; 6HR MAX TEMP:  78;

LOUISVILLE     CLOUDY    70  62  76 S7        30.06F
6HR MIN TEMP:  70; 6HR MAX TEMP:  77;

LEBANON*         N/A     66  64  94 S3        30.10S
GLASGOW*       MOCLDY    64  64 100 CALM      30.08S
BOWLING GREEN  LGT RAIN  68  64  87 SW7       30.07F
6HR MIN TEMP:  66; 6HR MAX TEMP:  69; 6HR PCP:  0.12;

$$

KYZ091>093-OHZ055-061-077-WVZ005-015-034-035-042-260700
...SOUTHERN OHIO/WEST VIRGINIA...

CITY           SKY/WX    TMP DP  RH WIND       PRES   REMARKS
COVINGTON      MOCLDY    68  63  84 SW3       30.07
COLUMBUS       MOCLDY    68  61  78 S5        30.06S
DAYTON         PTCLDY    69  62  78 SW12      30.06S
WILMINGTON     PTCLDY    66  62  87 S7        30.07S
HUNTINGTON     CLOUDY    67  64  90 CALM      30.09F
CHARLESTON       N/A     63  61  93 CALM      30.12S
PINEVILLE*       N/A     63  59  87 MISG      30.22S
BECKLEY        MOCLDY    66  53  63 S6        30.20S
BLUEFIELD      MOCLDY    63  53  70 W5        30.23F
LOGAN CO APT*  CLOUDY    70  59  68 CALM      30.15R
$$

VAZ002-007-008-TNZ017-027-036-066-071-260700
...SOUTHWEST VIRGINIA/EAST TENNESSEE...

CITY           SKY/WX    TMP DP  RH WIND       PRES   REMARKS
WISE*          CLOUDY    68  52  56 SE6       30.21F
JONESVILLE*      N/A     63  61  94 CALM      30.16S
ABINGDON*      MOCLDY    67  62  83 CALM      30.19F
BRISTOL        CLOUDY    68  63  84 CALM      30.16F
SEVIERVILLE*   CLEAR     63  59  88 CALM      30.12F
KNOXVILLE      PTCLDY    68  60  75 CALM      30.10F
OAK RIDGE      CLEAR     66  61  84 CALM      30.13R
CROSSVILLE     CLEAR     67  57  70 CALM      30.15F
NASHVILLE      PTCLDY    66  63  90 CALM      30.10S FOG
$$

...KEY TO REMARKS...
VSB - VISIBILITY IN MILES
WCI - WIND CHILL INDEX
HX  - HEAT INDEX

$$




USA.gov is the U.S. government's official web portal to all federal, state and local government web resources and services.